Regional Weather Roundup
Issued by NWS Jackson, KY

Home | Current Version | Previous Version | Graphics & Text | Print | Product List | Glossary On
Versions: 1 2 3 4 5 6 7 8 9 10 11 12 13 14 15 16 17 18 19 20 21 22 23 24 25 26 27 28 29 30 31 32 33 34 35 36 37 38 39 40 41 42 43 44 45 46 47 48 49 50
000
ASUS43 KJKL 091410
RWRJKL

EAST KENTUCKY HOURLY WEATHER ROUNDUP
NATIONAL WEATHER SERVICE JACKSON KY
900 AM EST TUE FEB 09 2016

NOTE: "FAIR" INDICATES FEW OR NO CLOUDS BELOW 12,000 FEET WITH
NO SIGNIFICANT WEATHER AND/OR OBSTRUCTIONS TO VISIBILITY.

* THESE REPORTS ARE NOT UNDER NWS QUALITY CONTROL AND MAY NOT
  REPORT WEATHER SUCH AS PRECIPITATION AND FOG.

KYZ079-080-083-085-087-088-110-112-115-119-120-091500
...EASTERN KENTUCKY...

CITY           SKY/WX    TMP DP  RH WIND       PRES   REMARKS
JACKSON        CLOUDY    20  12  71 W8        29.76S WCI  10
LONDON         LGT SNOW  20  15  81 W9        29.80S WCI   9
SOMERSET*      CLOUDY    21  14  73 W8        29.85S WCI  12
MONTICELLO*    FLURRIES  21  15  78 W12       29.85S WCI   9
WILLIAMSBURG*  CLOUDY    21  18  86 CALM      29.82R
MIDDLESBORO*   CLOUDY    23  15  71 W6        29.81S WCI  15
HARLAN APT*    CLOUDY    21  16  79 W5        29.76S WCI  15
HAZARD APT*    FLURRIES N/A N/A N/A NW6       29.78S
BLACK MTN*       N/A     12  10  92 VRB2        N/A
BIG SANDY*     FLURRIES  22  16  78 W6        29.76R WCI  14
MOREHEAD APT*  CLOUDY    21  12  68 VRB7G13   29.80R WCI  13
$$

KYZ035-036-041-042-044-050-067-078-099-091500
...CENTRAL KENTUCKY...

CITY           SKY/WX    TMP DP  RH WIND       PRES   REMARKS
MT STERLING*   CLOUDY    21  16  79 W8        29.80S WCI  12
DANVILLE*      CLOUDY    21  16  79 W7        29.82S WCI  13
RICHMOND*      CLOUDY    21  16  79 W7        29.80S WCI  13
LEXINGTON      CLOUDY    21  14  74 SW9       29.79S WCI  11
FRANKFORT      CLOUDY    21  15  78 W8        29.80R WCI  11
$$

KYZ091>093-OHZ055-061-077-WVZ005-015-034-035-042-091500
...SOUTHERN OHIO/WEST VIRGINIA...

CITY           SKY/WX    TMP DP  RH WIND       PRES   REMARKS
COVINGTON      LGT SNOW  21  18  86 W9        29.76R FOG     WCI  11
COLUMBUS       LGT SNOW  23  19  86 SW10      29.68R FOG     WCI  12
DAYTON         LGT SNOW  23  19  85 W16       29.70R FOG     WCI  10
WILMINGTON     LGT SNOW  20  17  88 W17       29.70R FOG     WCI   5
HUNTINGTON     PTSUNNY   23  12  62 SW7       29.77R WCI  15
CHARLESTON     LGT SNOW  25  19  78 VRB5      29.73R VSB 1   WCI  19
PINEVILLE*     LGT SNOW  25  18  77 MISG      29.73S
BECKLEY        CLOUDY    20  15  81 W9        29.63R WCI   9
$$

VAZ002-007-008-TNZ017-027-036-066-071-091500
...SOUTHWEST VIRGINIA/EAST TENNESSEE...

CITY           SKY/WX    TMP DP  RH WIND       PRES   REMARKS
BRISTOL        LGT SNOW  23  17  78 W14       29.74R VSB 1   WCI  11
KNOXVILLE      CLOUDY    26  13  57 W14       29.83R WCI  14
OAK RIDGE      CLOUDY    26  16  65 W6        29.84S WCI  19
CROSSVILLE     LGT SNOW  20  15  81 W7        29.78S VSB 1   WCI  11
NASHVILLE      LGT SNOW  26  19  74 VRB6      29.90R WCI  19
$$

...KEY TO REMARKS...
VSB - VISIBILITY IN MILES
WCI - WIND CHILL INDEX
HX  - HEAT INDEX

$$



USA.gov is the U.S. government's official web portal to all federal, state and local government web resources and services.